Presure
131 124 118 126 118 134 143 134 97 151 170 164 152 155 181 180 186 177 181 141 193 185 188 139 179 179 179 175 176 187 183 183 185 186 190 178 165 163 175 171 175 178 148 163 174
143 143 108 130 97 143 127 138 135 158 167 152 146 177 169 181 180 156 179 159 198 178 194 164 190 184 208 184 171 194 181 181 168 175 177 164 163 175 130 172 166 173 157 168 173
136 109 108 134 141 84 144 151 125 145 161 166 145 187 162 193 194 198 111 195 202 178 161 189 192 215 173 194 195 189 195 168 176 177 159 158 159 163 165 165 170 177 183 191 190
133 147 131 89 115 150 160 137 154 160 136 168 170 183 173 193 188 181 183 199 190 189 173 190 157 144 180 191 166 198 184 191 183 195 175 214 198 173 174 168 201 197 197 185 125
95 128 139 147 149 142 144 154 159 159 131 167 166 154 178 172 188 152 188 192 189 146 193 181 160 176 175 178 181 160 170 190 185 190 185 172 193 190 205 216 181 178 161 190 188
142 137 145 153 123 148 173 181 179 148 181 180 177 165 171 153 177 166 194 167 182 193 179 152 168 187 183 160 198 161 198 173 177 184 173 147 165 175 172 207 157 156 183 174 184
142 142 140 140 154 151 151 162 180 175 167 172 172 161 170 185 165 178 180 192 174 168 187 166 165 185 171 166 155 176 147 204 158 184 177 172 138 180 176 188 152 158 158 155 147
160 178 162 165 181 182 184 149 184 171 163 165 172 171 167 168 173 187 173 184 161 162 181 155 181 179 144 176 181 173 145 189 155 148 167 166 146 142 139 157 162 172 136 163 168
133 181 174 181 141 168 164 168 151 174 172 177 156 164 180 179 164 171 166 185 175 171 175 172 190 169 178 160 168 172 165 152 157 156 165 170 178 147 156 168 160 177 169 172 173
155 176 177 173 152 176 170 171 172 181 173 173 173 177 175 171 180 149 160 171 178 183 167 169 178 184 170 165 153 169 165 146 157 162 155 161 144 168 160 152 162 155 173 168 162
189 195 183 180 183 182 171 176 160 161 173 181 170 168 166 180 172 153 165 181 197 162 183 174 169 165 173 172 159 162 160 167 151 148 163 168 154 159 166 156 175 150 157 164 192
213 193 198 189 173 157 178 164 173 183 176 180 184 166 161 167 163 155 177 172 165 168 169 172 179 177 167 178 164 157 153 166 167 185 147 158 158 164 151 168 152 142 174 172 185
177 187 185 187 191 183 178 182 172 187 168 179 177 183 184 164 165 167 174 173 185 183 174 165 159 159 184 168 168 163 160 168 163 153 161 163 156 150 150 182 150 155 189 185 180
197 186 192 185 189 180 184 179 173 174 179 174 165 183 176 175 168 165 156 183 161 154 170 166 160 157 162 146 162 176 158 159 163 162 161 163 160 144 165 173 191 205 195 190 197
194 194 162 191 186 181 173 180 184 179 175 157 176 171 154 167 152 155 160 164 165 158 159 183 176 153 159 181 175 163 172 157 160 168 167 178 208 79 83 127 168 187 160 96 170
205 194 186 205 172 192 187 183 178 184 190 173 162 155 161 168 159 168 174 173 170 169 171 163 160 175 173 162 168 174 161 186 189 180 177 186 138 156 73 112 201 75 80 74 174
189 196 185 179 182 157 163 176 180 189 179 184 172 185 175 168 176 183 177 176 174 192 183 169 169 155 188 169 169 183 187 181 196 185 185 196 187 188 183 150 74 86 178 198 171
181 196 205 180 217 189 205 203 190 187 189 168 165 197 191 178 173 175 176 174 167 173 178 176 180 189 170 165 165 180 199 160 194 192 158 193 203 183 138 71 72 173 202 180 165
179 169 199 200 172 190 177 173 196 193 207 196 194 168 176 187 182 181 177 176 179 173 172 148 167 162 180 187 180 196 190 188 170 188 161 170 175 197 157 191 234 212 215 184 211
172 201 182 177 189 178 178 173 187 182 179 167 174 200 183 185 180 180 175 175 163 188 174 178 187 192 190 194 188 187 163 185 190 197 183 200 195 181 179 208 206 209 185 170 219
213 190 180 197 171 186 171 190 198 182 188 188 195 204 195 192 200 192 191 189 182 193 193 192 175 182 180 186 191 192 196 189 196 197 198 182 202 193 213 210 159 177 225 198 199
220 214 205 204 191 202 187 195 192 198 180 178 160 168 193 179 193 188 210 196 188 183 166 191 177 188 179 189 189 196 191 185 192 192 196 159 206 227 206 225 189 151 186 159 216
212 212 213 208 201 206 197 193 199 197 206 190 207 199 199 177 201 213 194 183 186 180 185 188 191 181 188 195 187 196 194 199 198 207 220 192 203 70 114 219 225 230 228 223 183
214 214 213 210 206 202 197 200 190 200 204 195 200 200 198 187 184 191 206 190 194 189 194 190 189 202 200 198 198 194 194 195 217 216 199 214 232 217 234 232 218 223 227 234 235
221 218 206 184 216 213 201 197 206 206 202 206 199 195 195 198 197 185 186 196 196 201 203 203 202 202 203 208 217 222 209 213 214 213 202 111 216 227 214 218 221 234 242 257 258
221 236 237 197 242 216 199 212 222 206 198 198 195 195 198 200 199 204 195 197 203 165 197 197 194 192 208 225 211 87 218 187 204 213 104 217 221 225 236 248 255 251 271 276 265
240 224 221 150 197 211 214 211 191 201 203 198 194 204 197 191 200 197 189 192 203 205 192 191 220 208 214 211 209 179 83 110 217 88 129 112 239 237 255 258 272 282 348 400 394
Wind_Speed
80 70 59 67 50 75 82 64 57 80 80 83 70 71 75 74 69 68 66 55 55 53 48 37 49 52 54 51 51 49 47 40 34 38 34 41 47 53 51 50 52 42 53 59 54
88 83 56 80 58 82 65 75 63 86 78 76 60 79 76 73 71 54 59 54 53 50 50 45 54 55 51 51 48 47 47 43 46 38 42 44 45 43 54 56 58 47 54 59 56
90 54 62 88 88 34 84 88 57 76 77 89 64 74 81 63 65 62 40 59 52 47 44 47 47 45 45 46 45 45 43 46 49 45 50 53 49 47 50 58 55 53 48 50 52
90 93 81 40 53 91 89 77 90 92 70 87 90 79 83 65 66 67 65 56 56 51 45 44 41 61 44 44 41 42 42 41 40 42 51 27 39 49 51 50 43 41 38 46 54
59 81 90 92 92 87 88 93 93 89 60 90 83 75 75 71 62 56 63 58 55 44 49 44 40 46 39 35 38 39 37 42 38 35 31 37 32 38 32 30 37 35 37 37 46
100 91 94 90 62 87 89 81 81 74 77 77 80 79 85 61 71 60 57 63 56 51 51 44 47 46 43 36 43 31 41 37 40 38 42 43 46 44 36 32 44 44 34 33 40
99 97 94 87 95 96 95 97 82 84 84 84 82 88 86 71 68 71 64 60 55 59 49 53 50 48 48 45 37 42 43 44 36 41 46 30 63 43 43 42 48 50 45 48 55
104 95 103 98 87 82 78 87 80 89 94 91 81 80 90 87 79 61 74 60 62 59 57 48 52 54 52 49 47 49 53 49 44 53 49 32 56 56 54 44 47 52 48 55 47
85 92 92 89 83 82 101 97 76 88 85 79 89 90 75 78 73 79 65 64 66 69 62 56 50 60 53 53 54 53 52 54 57 48 57 52 54 62 56 60 50 59 61 64 61
104 98 99 99 83 92 93 97 91 81 85 83 83 74 79 88 77 67 68 67 69 64 67 65 56 56 65 57 53 58 57 59 60 65 51 56 59 69 72 57 62 54 67 69 64
92 84 95 96 88 86 96 92 101 98 91 80 85 82 86 79 88 69 84 72 62 79 65 64 61 67 67 64 62 62 61 64 63 62 66 66 62 75 78 72 78 63 65 68 72
77 85 78 86 100 91 89 104 97 79 90 81 74 85 90 90 85 87 81 80 75 77 75 66 61 72 67 68 68 66 62 72 70 66 60 74 79 79 71 79 76 70 80 86 76
105 93 95 94 85 90 95 88 101 85 87 84 86 77 77 91 82 87 79 84 74 76 80 63 59 68 73 75 73 69 74 75 77 80 84 80 75 84 79 71 72 76 79 82 79
89 98 90 99 90 97 87 99 102 91 97 89 95 77 84 87 87 93 79 80 78 71 84 67 76 72 75 60 77 81 80 84 84 83 86 92 79 83 91 82 72 68 79 80 77
93 92 102 95 97 98 106 101 94 98 100 81 76 90 82 91 76 86 89 85 89 80 82 79 81 66 78 79 85 84 93 85 92 95 93 90 72 17 2 50 90 75 50 23 74
85 91 99 87 89 92 99 98 99 99 100 98 87 85 96 97 86 93 95 93 90 88 87 88 88 89 84 91 94 96 94 91 89 93 88 84 61 84 23 46 66 24 24 26 78
103 95 100 99 105 96 97 105 107 105 102 93 91 90 93 98 97 95 94 93 94 81 87 87 93 80 88 91 100 95 92 92 87 89 84 74 81 81 77 60 20 27 88 78 90
105 102 96 104 85 95 80 89 102 88 95 100 100 86 88 96 99 98 98 96 93 94 97 99 93 88 93 91 90 97 91 83 86 81 82 80 82 71 56 34 29 76 72 72 97
108 109 105 98 104 91 108 110 90 89 87 89 95 94 98 97 102 100 103 102 103 96 96 66 101 89 103 95 101 96 94 91 80 81 86 76 65 75 74 85 99 96 97 93 95
110 118 112 109 102 103 109 110 108 103 105 96 102 95 102 99 103 105 101 98 78 83 100 104 105 98 98 100 96 99 78 91 92 99 70 90 92 67 80 103 98 99 74 98 98
118 114 111 112 109 110 111 111 105 107 107 98 97 98 102 102 102 110 111 108 92 98 98 94 89 99 98 98 102 101 105 101 108 107 97 85 82 73 101 102 86 85 112 100 101
110 116 116 120 114 116 111 112 109 108 108 97 74 93 103 106 103 101 101 102 102 101 80 103 91 92 97 108 103 109 107 96 108 106 106 76 77 110 91 114 99 68 99 78 116
115 116 118 118 115 116 111 111 115 108 107 113 113 108 106 99 108 108 105 103 100 98 100 104 106 90 103 112 105 115 113 121 114 118 118 97 73 12 28 98 114 122 116 120 108
116 121 118 115 113 114 112 113 109 116 117 111 113 109 109 107 106 106 110 109 110 110 112 112 105 116 114 116 116 106 102 108 128 133 114 117 139 112 126 125 107 120 128 131 130
117 120 109 83 116 115 114 113 117 116 112 114 107 107 110 113 115 104 104 114 112 115 117 118 118 119 119 122 122 128 124 129 130 131 117 28 127 135 107 114 119 139 140 142 138
122 108 106 104 113 112 108 119 119 112 108 112 110 110 115 117 119 121 114 118 121 63 110 113 103 90 124 130 123 28 129 110 110 131 29 136 139 138 143 144 145 136 145 139 134
113 117 119 61 93 111 105 111 91 104 110 108 107 111 111 104 117 115 102 109 122 123 105 92 122 126 128 135 122 75 18 35 133 23 56 44 151 140 151 145 146 147 115 66 58
Wind_Direction
286 283 293 288 293 299 297 299 277 299 293 298 298 304 295 297 295 302 299 286 296 300 297 291 294 289 286 286 286 284 277 277 276 270 268 255 266 271 270 274 271 270 273 275 283
284 283 268 293 269 292 288 300 292 293 289 303 292 293 298 295 295 296 298 292 292 300 291 295 284 284 285 286 290 280 282 282 273 273 267 264 266 268 256 277 275 281 286 279 279
286 264 279 293 292 280 295 294 295 302 290 295 305 290 300 292 288 291 290 294 289 293 293 288 287 281 290 286 283 276 274 279 274 267 271 271 268 269 269 274 285 286 284 280 273
286 282 290 280 274 289 285 300 294 291 297 290 290 288 293 288 290 294 294 289 294 292 296 291 289 281 285 289 288 278 274 272 271 268 271 284 276 265 268 274 279 281 278 275 252
265 286 286 285 285 291 292 290 287 289 299 288 292 281 290 295 290 289 291 290 292 282 294 292 294 284 282 295 283 273 280 270 271 261 266 267 280 277 268 271 271 279 281 273 273
283 282 280 279 282 280 276 272 272 277 277 279 283 284 289 283 292 289 285 299 298 291 295 289 300 291 286 278 274 282 269 279 276 269 278 276 275 273 266 274 270 275 272 274 273
280 282 285 284 280 283 285 280 271 274 278 280 281 289 286 283 293 289 288 285 292 299 286 300 294 287 299 301 278 291 272 268 277 271 279 284 284 276 278 281 276 266 272 269 281
272 265 274 272 266 264 265 285 267 274 282 282 278 280 285 291 287 282 292 286 290 297 292 299 289 291 272 290 276 292 274 273 283 261 294 271 282 276 279 286 288 286 282 281 278
279 261 266 263 272 271 274 274 277 270 275 270 286 283 275 279 291 287 289 283 289 295 290 295 283 295 284 280 299 292 297 282 296 286 293 286 279 280 286 294 289 284 292 292 290
270 261 262 265 276 265 269 270 272 266 270 270 271 271 272 279 277 295 293 287 286 281 293 299 291 272 292 298 295 291 291 275 294 296 295 291 264 290 293 281 293 282 289 289 291
255 253 257 260 259 262 267 265 278 280 270 263 273 278 279 273 281 286 287 280 268 293 275 292 295 288 289 289 297 297 295 286 292 289 294 286 294 293 288 293 281 280 288 298 278
250 249 249 254 261 267 263 272 267 263 267 264 265 275 283 281 285 289 279 280 289 288 293 284 279 276 291 276 294 294 295 287 286 276 286 293 295 289 284 285 284 267 283 286 276
254 252 251 252 252 253 258 259 266 259 269 263 267 261 261 283 277 277 280 279 271 276 282 297 283 288 272 288 286 283 292 283 284 291 288 284 284 288 285 280 279 288 272 273 272
247 249 251 252 251 255 253 258 264 267 262 265 277 262 265 269 275 278 288 276 290 289 286 292 288 292 294 287 289 272 292 293 286 285 284 282 280 284 283 280 284 283 275 270 266
246 247 264 251 252 253 259 258 256 259 269 275 257 268 281 277 282 285 286 285 284 289 292 275 278 290 296 274 278 289 280 290 289 279 279 278 287 281 46 278 280 284 288 273 274
246 246 250 250 257 251 254 257 260 261 260 269 273 277 278 274 282 278 271 275 278 279 279 287 291 281 279 293 285 280 287 278 274 275 279 275 275 278 257 270 282 258 259 250 280
248 249 249 255 253 266 265 259 258 258 264 263 268 259 264 271 269 265 271 272 274 263 273 283 283 288 273 281 279 279 278 277 278 278 275 284 270 289 280 287 271 287 270 279 277
248 253 251 251 255 251 259 252 255 263 259 268 271 258 256 262 268 269 269 273 281 282 278 280 279 275 285 286 286 282 280 278 278 279 279 288 295 265 266 265 277 266 289 270 274
248 257 248 249 256 249 254 262 248 256 258 257 256 271 268 259 262 266 267 269 273 281 282 281 285 288 279 278 282 279 279 280 276 284 270 288 287 294 281 297 291 288 295 264 293
253 249 251 252 251 253 256 263 258 255 257 267 267 260 264 265 268 268 275 278 275 270 282 280 276 278 280 280 283 285 283 285 286 290 275 294 292 289 296 298 301 301 291 273 297
243 248 252 250 256 250 260 259 257 263 261 261 261 265 266 264 264 268 270 272 275 273 274 274 280 281 282 282 285 286 288 291 293 296 287 287 296 295 294 300 282 294 301 283 292
237 242 245 246 250 251 254 257 259 262 268 272 268 270 265 270 270 270 268 271 275 277 280 280 284 279 284 284 287 289 290 292 290 290 292 279 292 301 299 303 266 289 282 288 301
238 240 240 243 247 249 253 255 258 259 256 265 263 268 266 272 272 274 271 275 276 279 279 280 282 285 287 287 289 288 289 289 292 294 291 293 288 258 308 302 301 300 299 299 284
234 237 239 243 245 248 251 251 258 258 259 262 263 265 267 270 273 274 272 277 277 279 278 280 282 280 280 282 284 289 291 293 292 294 292 303 296 304 300 298 299 301 299 299 296
233 234 242 254 242 244 249 253 252 253 258 260 265 266 267 268 269 274 276 275 277 279 280 281 283 284 285 286 285 286 293 290 290 294 295 267 298 301 301 299 299 297 297 295 297
234 230 232 251 238 239 251 250 248 255 259 259 263 265 266 267 269 270 273 276 275 272 282 283 286 289 285 282 288 276 288 278 294 295 246 298 296 296 295 296 296 296 296 295 295
224 231 235 244 253 245 246 250 260 255 257 259 261 262 266 271 267 272 278 278 275 278 280 284 278 288 285 288 289 277 255 266 290 266 286 278 293 295 294 296 297 295 293 285 285